sat.trackr.live / text

‹ back to catalog

STARLINK-36380

NORAD 68344 · 2026-059Z

PAYLOAD ACTIVE UNKNOWN

§ Identity

Operator
Country
US
Launch date
2026-03-22
Launch site
AFETR
Launch vehicle
Mass (kg)
RCS (m²)

Purposes: comms

External: N2YO · Heavens-Above · Gunter

§ Orbital elements

Epoch: 2026-09-20T04:22:18.050304Z

Period
93.85 min
Inclination
53.1593°
Eccentricity
0.0000951
Mean motion
15.34395438 rev/d
Perigee alt
462.1 km
Apogee alt
463.4 km
Semi-major
6,840.9 km
B*
3.4531e-4
RAAN
164.8449°
Arg perigee
88.2251°
Mean anomaly
271.8860°
Rev number
2,795

§ Raw data

STARLINK-363801 68344U 26059Z   26263.18215336  .00011307  00000+0  34531-3 0  99952 68344  53.1593 164.8449 0000951  88.2251 271.8860 15.34395438 27950

JSON: /api/v1/satellites/68344 · /tle

For live sub-satellite position, see the globe view (requires WebGL).

§ Visibility from observer

Set your observer location to see the next 7 days of passes ≥ 10°. The values pass through the URL so the page stays shareable.

No JS? Fill the form by hand. The geolocation button needs JavaScript.